#timestamp,LO_Frequency,Hit,StdDev 
1644285615.2,286046997.9,N
1644285635.1,286046999.1,N
1644285636.0,286046999.1,N
1644285655.8,286047001.1,N
1644285675.6,286046999.1,N
1644285695.5,286046996.6,N
1644285715.3,286046998.8,N
1644285735.1,286046997.2,N
1644285755.9,286047000.0,N
1644285775.7,286047004.8,N
1644285795.6,286047005.2,N
1644285815.4,286047001.6,N
1644285835.2,286047002.0,N
1644285855.1,286046998.5,N
1644285856.0,286046998.5,N
1644285875.8,286046996.7,N
1644285895.6,286046998.4,N
1644285915.5,286047002.8,N
1644285935.3,286047000.1,N
1644285955.2,286046998.6,N
1644285975.9,286047002.1,N
1644285995.7,286047002.9,N
1644286015.6,286047004.9,N
1644286035.4,286047003.7,N
1644286055.3,286047005.6,N
1644286075.1,286047005.9,N
1644286076.0,286047005.9,N
1644286095.8,286047003.9,N
1644286115.7,286047003.8,N
1644286135.5,286047002.7,N
1644286155.4,286046999.0,N
1644286175.2,286047001.2,N
1644286195.0,286047001.1,N
1644286195.9,286047001.1,N
1644286215.8,286047000.3,N
1644286235.6,286046999.7,N
1644286255.4,286047002.2,N
1644286275.3,286047003.9,N
1644286295.1,286047005.4,N
1644286315.9,286047003.5,N
1644286335.7,286047003.7,N
1644286355.5,286047001.8,N
1644286375.4,286047002.5,N
1644286395.2,286047000.7,N
1644286415.1,286047002.4,N
1644286416.0,286047002.4,N
1644286435.8,286047004.4,N
1644286455.6,286047005.0,N
1644286475.5,286047002.1,N
1644286495.3,286046999.8,N
1644286515.1,286046998.5,N
1644286535.9,286046998.4,N
1644286555.7,286046997.8,N
1644286575.6,286047001.0,N
1644286595.4,286047002.1,N
1644286615.2,286047004.3,N
1644286635.1,286047000.1,N
1644286636.0,286047000.1,N
1644286655.8,286046996.5,N
1644286675.6,286046997.1,N
1644286695.5,286046997.9,N
1644286715.3,286046996.2,N
1644286735.2,286046993.3,N
1644286755.9,286046997.9,N
1644286775.7,286046997.5,N
1644286795.6,286046997.5,N
1644286815.4,286046996.5,N
1644286835.3,286046996.7,N
1644286855.1,286046998.3,N
1644286856.0,286046998.3,N
1644286875.8,286046998.3,N
1644286895.7,286046998.9,N
1644286915.1,286046999.6,N
1644286916.0,286046999.6,N
1644286935.8,286046997.2,N
1644286955.7,286046997.5,N
1644286975.5,286046997.1,N
1644286995.3,286046998.9,N
1644287015.2,286046998.6,N
1644287035.0,286046999.1,N
1644287035.9,286046999.1,N
1644287055.8,286046998.8,N
1644287075.6,286046996.6,N
1644287095.4,286046997.4,N
1644287115.3,286046995.2,N
1644287135.1,286046994.2,Y
1644287155.8,286046996.3,P
1644287175.7,286046994.4,P
1644287195.5,286046995.7,N
1644287215.4,286046994.8,Y
1644287235.2,286046995.4,P
1644287255.0,286046995.3,P
1644287255.9,286046995.3,P
1644287275.8,286046997.3,Y
1644287295.6,286047002.2,P
1644287315.5,286047002.1,N
1644287335.3,286047003.5,N
1644287355.1,286047004.7,N
1644287375.9,286047008.7,N
1644287395.7,286047015.4,Y
1644287415.5,286047009.6,P
1644287435.4,286047010.4,P
1644287455.2,286047007.3,N
1644287475.1,286047007.2,N
1644287476.0,286047007.2,N
1644287495.8,286047004.5,N
1644287515.6,286047006.7,N
1644287535.5,286047008.6,Y
1644287555.3,286047002.4,P
1644287575.2,286046998.6,N
1644287595.9,286047001.2,N
1644287615.7,286046998.4,N
1644287635.6,286046996.7,N
1644287655.4,286046995.1,N
1644287675.2,286046997.6,N
1644287695.1,286047000.0,N
1644287696.0,286047000.0,N
1644287715.8,286047002.5,N
1644287735.7,286047002.2,N
1644287755.5,286046998.7,N
1644287775.3,286046998.6,N
1644287795.2,286046997.1,N
1644287815.0,286046995.8,N
1644287815.9,286046995.8,N
1644287835.7,286046997.6,N
1644287855.6,286046999.4,N
1644287875.4,286046999.5,N
1644287895.3,286046996.5,N
1644287915.1,286046999.2,N
1644287916.0,286046999.2,N
1644287935.8,286046997.1,N
1644287955.7,286046998.7,N
1644287975.5,286046998.2,N
1644287995.3,286046999.4,N
1644288015.2,286046997.1,N
1644288035.0,286046998.5,N
1644288035.9,286046998.5,N
1644288055.8,286046998.6,N
1644288075.6,286046998.8,N
1644288095.4,286047003.7,N
1644288115.3,286047003.9,N
1644288135.1,286047002.5,N
1644288155.8,286047005.6,N
1644288175.7,286047009.0,Y
1644288195.5,286047009.2,P
1644288215.4,286047002.9,N
1644288235.2,286047001.9,N
1644288255.0,286047000.2,N
1644288255.9,286047000.2,N
1644288275.8,286047000.8,N
1644288295.6,286047001.2,N
1644288315.4,286046999.2,N
1644288335.3,286046998.1,N
1644288355.1,286046998.2,N
1644288375.9,286047002.5,N
1644288395.7,286047002.2,N
1644288415.5,286047004.1,N
1644288435.4,286047000.9,N
1644288455.2,286047003.5,N
1644288475.0,286047003.2,N
1644288475.9,286047003.2,N
1644288495.8,286047001.9,N
1644288515.6,286046998.1,N
1644288535.5,286047000.9,N
1644288555.3,286046998.5,N
1644288575.1,286047000.5,N
1644288595.9,286046998.2,N
1644288615.7,286046998.4,N
1644288635.5,286046999.1,N
1644288655.4,286046998.7,N
1644288675.2,286046998.4,N
1644288695.1,286047001.2,N
1644288696.0,286047001.2,N
1644288715.8,286046998.3,N
1644288735.6,286046999.1,N
1644288755.5,286046998.0,N
1644288775.3,286046995.9,N
1644288795.2,286046997.1,N
1644288815.9,286046996.6,N
1644288835.7,286046996.5,N
1644288855.6,286046996.7,N
1644288875.4,286047000.6,N
1644288895.2,286046998.1,N
1644288915.1,286046998.4,N
1644288916.0,286046998.4,N
1644288935.8,286046999.4,N
1644288955.7,286047000.9,N
1644288975.5,286046999.7,N
1644288995.3,286047002.1,N
1644289015.2,286046999.8,N
1644289035.0,286046999.0,N
1644289035.9,286046999.0,N
1644289055.8,286046998.9,N
1644289075.6,286046997.7,N
1644289095.4,286046998.2,N
1644289115.3,286047000.6,N
1644289135.1,286047002.7,N
1644289155.9,286047000.0,N
1644289175.7,286047000.2,N
1644289195.5,286047002.3,N
